Theta_e
308 308 308 308 308 308 308 308 309 309 309 309 309 309 309 309 310 310 311 311 312 312 311 311 311 312 313 312 314 313 319 319 318 317 318 313 317 312 314 315 315 317 317 317 319
308 308 308 308 308 308 308 308 308 308 309 309 309 309 309 309 310 310 311 311 312 312 311 311 312 312 314 313 313 315 317 316 314 316 317 315 315 315 315 315 316 316 317 317 318
308 308 308 308 308 308 308 308 308 308 308 308 309 309 309 309 310 311 311 311 312 312 312 311 312 313 315 314 313 313 315 312 313 312 313 315 314 314 316 317 317 317 317 316 317
307 307 307 307 308 308 308 308 308 308 308 308 308 309 309 309 312 312 313 312 312 312 312 312 313 314 315 315 313 315 312 312 312 312 313 315 314 314 315 318 316 316 315 315 315
308 308 308 308 308 308 308 308 308 308 308 308 308 308 309 309 310 311 311 311 311 311 312 313 313 313 315 314 314 315 313 312 312 312 312 312 314 315 314 315 315 315 315 315 315
309 309 309 308 308 308 308 308 308 308 308 308 308 309 309 310 309 311 311 310 311 311 312 313 313 312 313 314 315 313 313 314 313 313 313 314 314 313 315 314 314 314 315 314 315
309 309 309 309 309 309 308 308 308 308 308 308 308 309 309 310 310 310 312 312 311 312 313 313 313 313 312 313 312 313 315 315 315 313 314 313 316 315 315 314 314 314 313 314 314
308 308 308 308 309 308 308 308 308 308 308 309 309 310 309 309 310 310 312 313 313 311 312 312 313 313 313 312 314 315 316 316 314 313 313 314 317 316 314 313 315 315 314 314 314
315 312 308 307 307 308 308 308 308 309 309 310 310 310 311 310 310 310 311 313 313 311 311 312 312 312 313 315 316 316 315 316 316 313 314 315 318 316 314 313 315 316 315 315 315
320 319 314 311 308 308 308 309 310 310 312 312 312 312 311 310 311 311 312 313 312 312 312 313 313 315 315 316 314 316 316 315 316 314 313 316 316 317 315 313 315 316 316 315 316
319 319 321 315 312 311 311 313 313 314 314 312 311 310 311 311 312 313 313 313 313 313 315 312 315 316 315 315 314 313 315 315 315 313 314 316 316 316 316 315 315 315 316 316 316
319 319 319 319 316 314 314 317 317 314 317 315 312 312 312 313 313 314 313 313 314 315 311 313 314 315 313 313 313 314 315 315 315 313 313 316 316 316 316 316 316 317 317 317 317
316 315 318 320 318 317 316 316 320 320 320 319 317 316 312 312 314 314 314 313 314 313 313 313 314 312 313 312 313 314 315 315 314 314 312 313 316 317 316 314 315 315 315 315 316
316 316 315 316 319 319 318 317 318 320 322 319 318 318 316 314 314 313 314 314 313 314 313 314 312 312 312 313 313 314 313 313 314 315 316 314 316 318 318 319 317 316 316 316 314
315 315 314 315 315 319 319 319 319 320 326 319 317 316 314 315 313 313 313 314 315 313 314 314 313 312 313 314 313 315 312 313 314 316 315 316 317 318 317 318 319 319 317 314 314
314 315 314 314 314 314 314 318 318 321 325 320 315 315 314 314 311 311 311 312 312 313 312 313 309 312 314 310 312 310 313 313 312 315 320 318 318 319 320 320 320 318 314 313 313
309 313 313 314 314 313 313 313 320 319 316 319 318 314 316 315 312 313 313 314 316 315 316 313 313 311 310 313 311 313 316 320 322 320 322 315 318 320 319 316 317 316 313 313 314
307 308 309 313 313 312 313 308 315 311 316 314 313 314 318 313 313 312 313 315 314 314 316 317 316 314 312 316 316 313 317 321 329 323 321 312 319 320 317 317 314 312 311 312 312
306 306 307 308 313 314 313 312 316 313 314 316 315 317 317 314 314 313 315 316 315 313 317 317 317 312 310 312 316 314 315 317 320 310 320 321 321 317 316 316 313 313 312 312 311
304 305 306 306 310 311 310 313 313 313 315 315 316 314 316 316 315 313 314 316 315 312 313 316 318 312 311 311 311 314 315 317 318 327 326 322 321 322 319 317 315 314 313 311 312
301 303 304 305 307 308 310 312 312 311 315 316 316 315 315 315 312 312 314 314 312 312 312 315 316 314 311 313 316 314 315 315 317 319 325 325 323 318 320 316 315 313 311 311 312
301 304 304 305 308 309 310 310 310 311 312 314 313 315 315 316 316 315 315 315 311 310 313 314 316 320 316 310 311 314 317 316 321 320 317 318 323 313 314 315 314 312 311 311 311
301 301 307 307 308 309 309 309 310 311 312 314 314 313 313 315 316 315 314 313 312 313 314 314 315 320 318 315 313 312 313 315 317 316 321 323 324 308 309 309 309 311 310 310 310
299 300 302 307 307 306 308 308 309 308 309 312 312 313 314 314 313 313 314 312 311 310 310 313 311 316 323 319 317 316 313 313 316 320 321 320 321 314 311 311 310 309 309 309 309
299 300 300 305 306 307 307 306 307 307 309 309 311 312 313 313 313 314 313 313 312 311 310 310 312 311 316 317 315 317 317 315 314 316 319 320 319 318 317 313 313 311 308 308 309
299 298 298 299 301 306 306 307 307 307 309 309 310 310 311 312 311 311 311 312 313 311 312 310 313 311 314 312 312 312 315 316 317 317 316 317 318 317 316 316 316 312 311 312 312
298 297 298 298 301 304 306 306 306 307 305 307 308 308 308 308 307 307 308 308 308 308 308 309 310 312 316 314 314 315 315 316 315 315 316 318 317 316 316 314 314 314 314 314 315
Wind_Speed
13 13 13 12 12 11 10 9 8 7 7 6 5 5 5 5 6 6 6 6 9 9 10 9 8 7 7 6 5 5 4 6 5 7 3 8 9 5 7 5 9 10 7 6 12
11 12 12 11 11 10 10 9 8 7 7 6 5 5 6 6 7 8 8 8 9 10 10 10 10 9 4 4 3 4 4 6 2 4 3 8 9 9 6 11 8 11 16 11 13
10 10 11 11 11 10 9 9 8 8 8 7 6 6 6 5 6 5 10 10 10 10 10 10 10 9 4 4 3 3 4 3 4 5 3 5 6 8 9 9 13 16 15 19 16
11 11 10 10 10 10 9 9 8 8 8 7 6 6 5 4 3 3 6 8 10 11 11 11 11 6 4 5 3 4 2 3 1 4 4 4 4 6 14 14 8 13 12 16 20
12 11 10 10 10 10 9 9 8 8 8 7 7 6 5 5 6 4 5 7 9 11 13 12 10 6 5 5 5 4 3 4 3 4 5 4 6 6 15 16 20 16 14 16 20
14 13 11 11 11 10 10 9 9 8 8 8 7 6 5 6 6 8 8 7 8 10 11 10 7 6 6 3 4 2 2 2 4 4 5 4 4 3 8 12 21 23 21 20 21
15 14 14 12 12 12 11 10 9 9 8 8 8 7 8 11 6 10 11 10 9 9 10 9 8 4 7 5 3 2 3 4 9 4 4 4 7 13 19 17 18 18 21 24 23
16 15 15 14 13 12 11 11 10 9 8 8 7 7 7 9 14 10 12 13 11 10 10 9 7 6 3 8 3 1 2 3 3 4 1 5 13 6 7 8 18 19 21 25 27
15 15 15 15 13 13 12 11 10 9 8 7 6 6 6 7 15 16 15 12 12 11 10 10 9 4 5 4 3 1 6 5 4 5 3 7 10 1 3 6 12 14 17 20 25
17 15 15 14 14 13 12 10 9 9 7 6 8 3 12 8 12 17 16 13 11 13 11 7 4 4 3 7 10 6 5 4 6 3 4 7 19 15 14 14 21 22 20 22 25
15 14 16 14 14 13 12 8 5 4 13 9 6 5 3 12 9 12 17 16 12 10 8 3 7 12 18 17 4 2 3 8 5 2 4 14 17 21 23 22 26 28 30 32 32
13 14 15 15 15 14 14 8 6 3 4 16 22 20 9 9 7 13 20 12 9 10 7 4 13 16 1 7 7 7 11 14 11 5 5 12 17 20 25 27 29 29 30 33 27
9 6 8 20 18 17 18 20 5 1 4 8 21 24 21 18 9 17 23 11 5 9 15 16 4 8 10 6 10 12 15 11 9 5 5 8 14 11 14 17 27 34 36 32 25
13 14 9 5 23 22 26 19 17 4 4 6 9 12 22 16 7 15 26 11 5 14 8 11 6 5 9 10 12 15 11 9 7 3 8 2 10 12 12 17 11 24 19 18 15
15 12 10 14 6 14 18 20 17 8 5 4 4 5 14 16 17 15 29 14 11 9 8 6 10 10 11 8 14 3 5 7 3 7 5 10 7 5 5 11 17 22 8 5 5
15 15 14 13 16 10 1 13 25 7 13 4 4 5 10 9 3 8 14 7 6 6 2 1 1 4 3 3 5 12 6 4 2 2 9 13 10 14 9 14 13 9 5 7 4
10 13 17 17 14 15 4 6 7 5 1 5 3 5 6 8 5 7 13 13 11 9 15 4 6 2 4 7 3 4 8 3 4 5 10 3 9 20 8 7 8 7 6 5 6
10 9 11 17 16 12 18 3 4 0 8 2 1 4 10 9 5 6 11 12 16 9 4 15 12 15 13 13 9 12 10 7 7 6 7 3 9 6 13 14 13 12 11 10 11
10 10 12 13 17 21 14 3 4 6 4 4 3 3 7 4 3 7 11 12 12 15 15 9 10 3 3 5 12 8 11 7 6 2 4 10 18 10 12 14 10 13 11 10 7
10 8 13 11 15 6 3 5 4 3 6 6 5 3 1 2 4 6 10 5 8 15 17 4 8 2 4 3 4 10 10 5 5 6 9 13 10 12 6 14 11 10 8 5 8
10 5 7 17 15 6 3 4 5 8 6 6 8 6 6 5 5 3 2 4 2 3 17 9 6 3 5 12 16 6 8 5 3 5 6 13 13 5 11 7 10 8 7 10 11
9 3 10 23 8 5 3 5 5 5 7 3 3 9 9 9 7 9 6 5 3 3 5 9 3 9 10 1 3 10 14 18 7 7 4 3 20 4 5 6 12 10 11 12 14
5 4 12 25 7 7 5 4 5 5 7 8 8 7 2 3 3 3 5 4 2 2 5 5 3 3 4 2 3 6 10 16 15 4 11 8 16 4 2 7 6 7 11 16 17
7 4 5 18 9 9 13 9 7 6 3 3 5 7 5 6 5 4 5 5 6 2 14 4 5 6 6 3 4 6 7 13 18 9 11 22 22 1 4 8 8 12 16 19 16
9 4 4 6 11 11 11 5 16 9 8 5 4 10 7 4 5 7 8 5 7 8 6 5 2 2 14 8 5 9 14 17 17 20 10 24 21 20 10 9 15 14 14 18 19
10 5 3 1 5 15 13 9 12 13 8 5 5 3 9 10 5 1 4 3 1 3 10 8 4 4 6 8 11 12 16 16 24 26 27 30 27 18 10 24 26 16 21 26 27
17 12 5 4 3 9 14 12 9 6 1 3 5 3 2 2 4 7 7 7 5 1 4 0 2 5 7 1 4 9 19 23 22 23 23 23 28 19 12 12 21 27 30 34 36
Wind_Direction
203 199 197 198 199 198 200 201 206 209 214 222 232 248 265 268 268 258 244 220 201 191 190 187 187 187 174 170 154 156 212 222 215 187 180 162 191 180 204 197 200 206 216 215 188
212 208 202 202 206 208 209 208 210 218 225 233 241 252 263 274 273 256 234 213 202 196 197 196 191 181 167 148 145 197 224 220 205 189 193 181 201 177 191 204 220 229 229 216 198
209 218 211 207 206 212 220 224 225 225 229 233 244 252 264 277 289 248 222 213 207 204 203 202 195 182 154 146 172 188 240 176 214 202 192 189 203 189 217 223 224 223 224 223 212
212 213 217 212 215 215 223 228 235 242 248 249 245 249 252 244 235 226 206 207 209 205 198 191 183 163 152 179 175 209 201 193 154 200 169 194 167 202 226 234 235 241 236 231 225
208 218 222 224 217 220 227 235 240 246 255 261 260 255 250 233 239 223 197 194 195 191 191 191 179 158 177 164 160 218 174 201 230 220 228 216 223 238 251 243 250 247 241 239 234
206 218 222 230 236 228 230 235 244 253 258 266 266 260 248 237 234 212 192 179 182 185 187 185 197 177 122 150 212 131 209 252 249 231 234 233 242 208 251 245 247 249 251 245 240
225 216 218 229 234 241 241 242 244 247 257 265 268 263 251 243 237 211 201 191 183 177 180 180 167 163 142 136 135 106 256 264 231 223 223 197 237 231 249 249 254 251 250 248 245
232 229 224 220 232 239 245 248 248 253 253 256 263 264 250 242 232 215 206 205 201 196 196 184 172 151 99 126 75 213 236 248 135 180 188 206 266 251 223 244 256 252 248 250 249
229 231 225 228 219 234 238 249 251 245 251 251 247 230 253 231 222 216 209 204 197 192 184 176 165 120 131 187 212 220 254 224 300 194 143 219 281 209 240 255 270 261 252 250 250
229 230 228 225 227 222 230 233 244 252 243 242 233 233 236 215 212 209 202 193 177 171 148 164 126 171 164 201 231 210 218 220 247 155 205 224 259 263 257 269 270 269 262 256 251
220 230 229 227 222 222 221 212 223 251 221 211 219 195 173 203 181 192 188 178 164 164 183 147 203 202 212 219 233 138 210 255 245 194 221 246 261 271 275 268 264 262 260 258 255
227 235 222 221 217 218 213 193 180 181 275 242 240 221 217 190 184 193 184 175 177 191 140 171 229 220 209 178 206 232 252 258 280 270 228 275 263 269 267 257 255 260 260 258 264
194 165 178 220 214 214 215 214 141 207 263 245 227 229 219 216 209 195 183 185 181 175 197 216 207 212 194 191 202 227 234 243 258 318 229 286 271 236 267 259 255 256 256 263 262
217 212 202 136 208 208 212 213 213 216 266 229 208 224 209 203 233 200 188 171 184 211 192 237 192 157 192 224 210 245 212 221 244 268 274 324 285 269 266 267 252 256 252 256 261
203 220 225 216 224 180 221 206 198 181 260 172 159 195 183 181 141 190 184 189 180 172 177 205 182 190 207 212 185 235 142 182 187 230 305 231 268 247 228 250 256 258 244 240 245
205 211 219 224 231 229 39 198 184 181 222 167 119 163 162 194 103 136 173 176 157 141 239 294 103 206 230 106 171 140 101 81 90 218 258 247 227 276 210 230 247 266 223 195 234
220 221 209 209 219 219 208 255 186 195 321 171 167 183 190 173 144 173 177 186 180 186 220 180 212 189 159 112 87 198 164 210 228 203 257 96 212 249 292 220 242 230 185 262 248
225 217 214 212 205 181 184 71 245 112 241 107 62 177 199 155 189 158 163 198 224 226 218 213 226 187 186 217 176 190 196 210 241 230 277 129 235 252 234 265 232 226 253 248 261
225 227 228 214 196 193 174 177 234 175 163 152 80 264 199 188 167 165 213 223 210 199 209 192 234 191 221 179 179 182 217 248 268 102 283 252 258 253 232 240 237 238 244 245 246
219 224 232 212 206 209 103 201 207 201 161 166 171 190 205 63 168 197 179 230 225 196 230 208 260 160 158 176 213 214 149 175 213 229 244 253 264 249 232 234 228 223 211 215 194
198 205 199 184 178 188 206 213 205 198 172 180 172 179 195 168 156 180 239 299 247 193 207 228 237 142 137 206 182 170 201 219 228 222 248 275 266 199 238 190 188 170 175 178 179
181 199 176 173 170 196 193 179 190 186 181 107 98 205 210 189 179 188 215 237 327 106 188 203 189 222 204 59 301 249 216 195 202 202 238 292 266 124 202 181 168 185 187 185 173
188 187 171 174 198 205 154 187 193 182 187 177 190 191 152 164 207 202 179 36 132 265 172 160 201 173 164 263 286 230 217 220 235 51 214 207 261 44 108 156 194 205 206 187 180
174 185 194 207 220 204 197 198 192 218 250 207 190 163 162 201 185 180 200 211 135 28 337 254 168 217 252 33 115 197 222 225 213 207 220 226 248 117 217 223 211 217 212 197 197
197 221 198 199 209 211 195 205 198 196 222 213 225 203 179 208 227 224 232 227 201 192 165 168 264 287 266 271 231 240 213 212 239 232 220 249 242 242 235 243 237 228 211 213 241
176 186 173 239 220 203 197 206 186 191 181 200 209 184 229 239 227 157 28 310 242 123 163 185 219 171 253 247 259 253 252 240 217 222 227 245 251 245 246 241 248 243 229 247 260
194 189 166 177 179 188 214 198 190 195 66 127 171 123 266 320 283 295 264 248 260 12 347 163 195 185 254 239 254 234 239 231 236 237 228 242 246 255 252 235 231 240 248 256 265